[[{"header":{"parameterUnit":"m.s-1","parameterCategory":2,"la1":30.2991,"la2":30.254,"lo1":-89.0895,"lo2":-89.0444,"dy":0.0017,"dx":0.0017,"nx":28,"ny":28,"refTime":"2024-04-30T09:00:00:Z","depth":"0","parameterNumber":2,"parameterNumberName":"U-component_of_CURRENTS"},"data":[0,0,0,0,0,0,0,0,0,0,0,0,0,0,0,0,0,0,0,0,0,0,0,0,0,0,0,0,0,0,0,0,0,0,0,0,0,0,0,0,0,0,0,0,0,0,0,0,0,0,0,0,0,0,0,0,0,0,0.2194,0.2195,0,0.2344,0.2346,0.2348,0.2458,0.2458,0.2458,0.2459,0.2649,0.2654,0.2658,0,0,0,0,0,0,0,0,0,0,0,0,0,0.2137,0.2137,0.2193,0.2195,0.2196,0.2343,0.2346,0.2349,0.2458,0.2458,0.2458,0.2459,0.2647,0.2653,0.2659,0,0,0,0,0,0,0,0,0,0,0,0,0,0.2217,0.2137,0.2193,0.2264,0.2271,0.2343,0.2346,0.2349,0.2457,0.2458,0.2459,0.2459,0.2646,0.2652,0.2659,0.2692,0,0,0.2681,0.2684,0,0,0,0,0,0,0,0,0.2212,0.222,0.2252,0.2259,0.2267,0.2377,0.2396,0.2464,0.2457,0.2393,0.2459,0.2459,0.2557,0.2572,0.2607,0.2701,0.2709,0.2682,0.2686,0.2689,0.2691,0,0,0,0,0,0,0,0.2206,0.2215,0.2259,0.2253,0.2262,0.2334,0.2345,0.241,0.2476,0.2399,0.2406,0.2412,0.2563,0.26,0.2612,0.2712,0.2681,0.2688,0.2692,0.2695,0.2866,0.2867,0,0,0,0,0,0,0.2167,0.2208,0.2254,0.2263,0.2234,0.2333,0.2347,0.2346,0.2475,0.2492,0.2412,0.2417,0.2587,0.2604,0.2619,0.2702,0.2689,0.2696,0.27,0.2866,0.2866,0.2867,0,0,0,0,0,0,0.2166,0.217,0.2248,0.2235,0.2249,0.2332,0.2332,0.2349,0.2401,0.2483,0.2503,0.2447,0.2589,0.2609,0.2676,0.2708,0.2699,0.2705,0.2866,0.2866,0.2867,0.2843,0,0,0,0,0,0,0.2163,0.2168,0.2167,0.2232,0.2248,0.2306,0.2331,0.2351,0.24,0.2409,0.2519,0.2537,0.2591,0.2665,0.2683,0.2718,0.2711,0.2865,0.2866,0.2866,0.2843,0.2842,0.2842,0,0,0,0,0,0.2161,0.2164,0.2165,0.2172,0.2239,0.2306,0.2323,0.2388,0.2401,0.2435,0.2489,0.2534,0.2681,0.267,0.2692,0.273,0.2865,0.2866,0.2866,0.2844,0.2843,0.2842,0,0,0,0,0,0,0.2152,0.2176,0.218,0.2192,0.2244,0.2323,0.2354,0.239,0.2462,0.2467,0.254,0.2562,0.2635,0.2675,0.2661,0.2777,0.2781,0.2786,0.2756,0.2756,0.2755,0.2762,0.2717,0,0,0,0,0,0.2138,0.2141,0.2185,0.2198,0.2215,0.2281,0.2317,0.2359,0.2421,0.2455,0.252,0.2586,0.2653,0.2696,0.2759,0.2822,0.2842,0.2858,0.2857,0.2856,0.2874,0.2928,0.2934,0.2869,0.2869,0.2869,0,0,0.2136,0.2151,0.2153,0.2196,0.2236,0.2281,0.2307,0.2362,0.2412,0.2462,0.2543,0.2589,0.2666,0.2738,0.2775,0.2779,0.2873,0.2857,0.2856,0.2875,0.2929,0.2936,0.2942,0.2869,0.2869,0.2869,0,0,0.2143,0.2145,0.2153,0.2191,0.2242,0.2288,0.2299,0.2373,0.2419,0.2487,0.2533,0.2589,0.2692,0.2753,0.2797,0.2829,0.2865,0.2848,0.2862,0.2913,0.2919,0.2925,0.2906,0.2911,0.2851,0.2851,0.2851,0,0.2142,0.2154,0.2174,0.22,0.2237,0.2286,0.2327,0.2383,0.2472,0.2511,0.251,0.2651,0.2706,0.2805,0.2812,0.2832,0.2842,0.286,0.2913,0.2919,0.2926,0.2906,0.2911,0.285,0.285,0.2851,0.2851,0,0.216,0.2176,0.2189,0.223,0.2277,0.2321,0.2384,0.2435,0.2478,0.2535,0.2625,0.2683,0.2772,0.2789,0.2816,0.2895,0.2876,0.2901,0.2914,0.2931,0.2908,0.2914,0.2849,0.2849,0.2849,0.285,0,0,0.2143,0.219,0.2195,0.2213,0.2296,0.2332,0.2411,0.25,0.255,0.2619,0.2688,0.2782,0.2806,0.2855,0.2889,0.2926,0.2951,0.2931,0.2934,0.291,0.3016,0.2873,0.2865,0.299,0.2992,0.2994,0.2962,0,0.2156,0.219,0.2228,0.2284,0.231,0.2381,0.2451,0.2535,0.2605,0.2678,0.2744,0.2818,0.2837,0.2864,0.2913,0.2952,0.2976,0.2955,0.3007,0.3008,0.2879,0.2872,0.2747,0.2699,0.2968,0.2969,0.2969,0,0.2163,0.2185,0.223,0.2296,0.2315,0.2365,0.2473,0.2545,0.2664,0.2715,0.2803,0.2851,0.2928,0.2925,0.3011,0.2997,0.3012,0.3023,0.3023,0.2913,0.2878,0.2738,0.27,0.264,0.2979,0.2978,0.2977,0,0.2129,0.2188,0.2219,0.2243,0.233,0.2372,0.2435,0.2555,0.2613,0.2737,0.2776,0.2886,0.2925,0.2985,0.3012,0.3022,0.307,0.3089,0.2969,0.2956,0.2873,0.2849,0.2789,0.315,0.315,0.315,0.315,0,0.2128,0.2149,0.2196,0.2211,0.2258,0.2337,0.2409,0.2495,0.2601,0.2663,0.2785,0.283,0.2947,0.2987,0.3015,0.2988,0.3079,0.2965,0.2951,0.2851,0.2827,0.279,0.2765,0.3149,0.3149,0.3149,0.315,0,0.2095,0.2124,0.2154,0.2221,0.224,0.2277,0.2372,0.2419,0.2536,0.2614,0.2647,0.2789,0.2841,0.291,0.2984,0.2962,0.2859,0.2937,0.2767,0.2733,0.2533,0.2509,0.2326,0.226,0.2787,0.2784,0.2781,0,0.2083,0.2091,0.2138,0.2146,0.2177,0.223,0.2265,0.2378,0.2427,0.2573,0.2595,0.2682,0.2733,0.2763,0.2756,0.2748,0.2718,0.2598,0.2601,0.2489,0.2457,0.2368,0.2323,0.2465,0.2459,0.2455,0.2452,0,0.2062,0.2075,0.2093,0.2102,0.2123,0.2152,0.2208,0.2231,0.236,0.2412,0.2486,0.2535,0.2581,0.2524,0.2503,0.2491,0.2432,0.2502,0.2471,0.2254,0.2075,0.2015,0.2478,0.2413,0.2417,0.2419,0.2422,0.2423,0.204,0.2038,0.2047,0.2048,0.2063,0.2069,0.2059,0.2112,0.2151,0.2208,0.2318,0.2336,0.2341,0.2301,0.2256,0.2101,0.2142,0.2039,0.2033,0.1963,0.1854,0.2174,0.2043,0.2045,0.2046,0.2047,0.2049,0,0.1993,0.1983,0.1988,0.1971,0.1942,0.1983,0.2001,0.1971,0.1953,0.2039,0.2071,0.2051,0.1967,0.1952,0.1813,0.1685,0.1634,0.1619,0.1527,0.1522,0.1892,0.1835,0.1549,0.1549,0.155,0.155,0.155,0.155,0.1967,0.1933,0.1919,0.1841,0.1825,0.1759,0.1744,0.1721,0.1751,0.172,0.1701,0.1736,0.1743,0.1606,0.1448,0.1396,0.1302,0.1157,0.1204,0.1534,0.1575,0.1615,0.1558,0.1219,0.1219,0.0783,0.078,0.0777]},{"header":{"parameterUnit":"m.s-1","parameterCategory":2,"la1":30.2991,"la2":30.254,"lo1":-89.0895,"lo2":-89.0444,"dy":0.0017,"dx":0.0017,"nx":28,"ny":28,"refTime":"2024-04-30T09:00:00:Z","depth":"0","parameterNumber":3,"parameterNumberName":"V-component_of_CURRENTS"},"data":[0,0,0,0,0,0,0,0,0,0,0,0,0,0,0,0,0,0,0,0,0,0,0,0,0,0,0,0,0,0,0,0,0,0,0,0,0,0,0,0,0,0,0,0,0,0,0,0,0,0,0,0,0,0,0,0,0,0,0.019,0.0189,0,0.0085,0.0083,0.0081,-0.0005,-0.0006,-0.0006,-0.0007,-0.021,-0.0215,-0.022,0,0,0,0,0,0,0,0,0,0,0,0,0,0.0216,0.0216,0.019,0.0189,0.0189,0.0085,0.0083,0.0081,-0.0005,-0.0006,-0.0006,-0.0007,-0.0209,-0.0215,-0.0221,0,0,0,0,0,0,0,0,0,0,0,0,0,0.0162,0.0216,0.019,0.0137,0.0132,0.0085,0.0083,0.008,-0.0005,-0.0006,-0.0006,-0.0007,-0.0207,-0.0214,-0.0222,-0.0256,0,0,-0.0245,-0.0248,0,0,0,0,0,0,0,0,0.0165,0.0161,0.0146,0.0141,0.0135,0.0057,0.0017,-0.0035,-0.0005,0.0041,-0.0007,-0.0007,-0.0126,-0.014,-0.0165,-0.0265,-0.0274,-0.0245,-0.025,-0.0253,-0.0255,0,0,0,0,0,0,0,0.0169,0.0164,0.0143,0.0145,0.0138,0.0084,0.0076,0.0007,-0.0044,0.0037,0.0032,0.0029,-0.0131,-0.0158,-0.0171,-0.0277,-0.0245,-0.0252,-0.0257,-0.026,-0.0384,-0.0383,0,0,0,0,0,0,0.0199,0.0168,0.0146,0.014,0.0155,0.0085,0.0076,0.0078,-0.0041,-0.0057,0.003,0.0025,-0.0144,-0.0162,-0.0178,-0.0193,-0.0253,-0.026,-0.0265,-0.0385,-0.0384,-0.0382,0,0,0,0,0,0,0.02,0.0199,0.0151,0.0155,0.0146,0.0087,0.0089,0.0076,0.0057,-0.0045,-0.0064,0.0025,-0.0146,-0.0168,-0.021,-0.0203,-0.0264,-0.0271,-0.0387,-0.0385,-0.0383,-0.0244,0,0,0,0,0,0,0.0202,0.02,0.0205,0.0158,0.0148,0.0135,0.009,0.0075,0.0058,0.0051,-0.0056,-0.0076,-0.0148,-0.0198,-0.0218,-0.0214,-0.0276,-0.0388,-0.0386,-0.0383,-0.025,-0.0238,-0.0227,0,0,0,0,0,0.0203,0.0213,0.0206,0.0203,0.016,0.0136,0.0125,0.0075,0.0059,0.0054,0.0,-0.0072,-0.0198,-0.0203,-0.0226,-0.0225,-0.0389,-0.0386,-0.0384,-0.0255,-0.024,-0.0227,0,0,0,0,0,0,0.0217,0.0204,0.0196,0.0199,0.0178,0.0124,0.0113,0.009,0.0043,0.0037,-0.0055,-0.0079,-0.0115,-0.0182,-0.0184,-0.0252,-0.0307,-0.0308,-0.0201,-0.0188,-0.0176,-0.0161,-0.0283,0,0,0,0,0,0.023,0.0238,0.0215,0.0217,0.0214,0.017,0.0154,0.0128,0.0086,0.0064,-0.0002,-0.007,-0.0124,-0.0161,-0.0224,-0.0261,-0.0291,-0.0275,-0.0263,-0.0253,-0.0255,-0.0268,-0.0257,-0.0373,-0.0373,-0.0373,0,0,0.0235,0.0231,0.0233,0.0222,0.02,0.0198,0.0157,0.0145,0.0141,0.0048,0.0021,-0.0033,-0.0121,-0.0157,-0.0181,-0.0212,-0.0229,-0.0249,-0.024,-0.0248,-0.0264,-0.0252,-0.0242,-0.0371,-0.0372,-0.0372,0,0,0.0252,0.0251,0.0264,0.0257,0.0244,0.0222,0.023,0.0192,0.0173,0.015,0.009,0.0059,-0.004,-0.0087,-0.0128,-0.0089,-0.0162,-0.0119,-0.0058,-0.0069,-0.0059,-0.0052,-0.0042,-0.0034,-0.0118,-0.0118,-0.0118,0,0.0258,0.0276,0.0262,0.0273,0.0272,0.0243,0.0255,0.0234,0.0188,0.0181,0.0157,0.0062,-0.0006,-0.0041,-0.0026,-0.0064,-0.0077,-0.0101,-0.0052,-0.0045,-0.0039,-0.0032,-0.0025,-0.0111,-0.0112,-0.0112,-0.0113,0,0.0285,0.0299,0.0308,0.0319,0.0314,0.0322,0.0304,0.03,0.0282,0.0257,0.0232,0.0163,0.0104,0.0084,0.0035,0.0039,0.0018,-0.0027,-0.0082,-0.0019,-0.0015,-0.0011,-0.0101,-0.0103,-0.0105,-0.0107,0,0,0.0302,0.0324,0.0328,0.0345,0.0344,0.0345,0.0353,0.035,0.0363,0.0323,0.033,0.0261,0.0233,0.0188,0.0132,0.0122,0.0168,0.0071,0.0067,0.0092,0.0164,0.0158,0.0162,0.0133,0.0133,0.0134,0.0163,0,0.0329,0.0367,0.0367,0.04,0.0419,0.0407,0.0418,0.0412,0.04,0.0401,0.035,0.0326,0.0269,0.0251,0.0238,0.0176,0.018,0.0165,0.0088,0.0086,0.0082,0.0166,0.0214,0.0243,0.0167,0.0167,0.0168,0,0.036,0.0383,0.0424,0.0455,0.0463,0.0478,0.0502,0.0508,0.0502,0.0492,0.0471,0.0423,0.0399,0.0345,0.0294,0.0288,0.0242,0.02,0.0199,0.0142,0.0088,0.0159,0.0253,0.0214,0.0173,0.0173,0.0173,0,0.0388,0.0425,0.0463,0.0473,0.05,0.0519,0.0533,0.0538,0.0559,0.0553,0.0568,0.0518,0.0504,0.044,0.0351,0.0326,0.0304,0.0252,0.021,0.021,0.0206,0.0204,0.0258,0.023,0.023,0.023,0.023,0,0.0422,0.0452,0.0484,0.0506,0.056,0.0561,0.0615,0.062,0.064,0.0685,0.0622,0.0644,0.0527,0.0489,0.04,0.0334,0.0343,0.0243,0.0221,0.0259,0.0261,0.0186,0.0138,0.0231,0.0231,0.0231,0.0231,0,0.0451,0.0468,0.0517,0.0558,0.0578,0.0618,0.0675,0.0714,0.0726,0.0785,0.0786,0.0749,0.0707,0.0596,0.0497,0.0407,0.0312,0.0297,0.0361,0.0345,0.0258,0.0215,0.0216,0.0197,0.0267,0.0267,0.0267,0,0.0469,0.0498,0.0561,0.0598,0.0622,0.0682,0.0728,0.0756,0.0804,0.0857,0.0894,0.0863,0.0867,0.0729,0.0568,0.0437,0.0349,0.0367,0.0315,0.0286,0.0221,0.0195,0.0177,0.0383,0.0384,0.0385,0.0386,0,0.0507,0.053,0.0572,0.065,0.0708,0.0776,0.0846,0.0898,0.0947,0.1008,0.1076,0.1082,0.0964,0.0855,0.0657,0.0545,0.0358,0.0378,0.0333,0.0313,0.0304,0.0264,0.034,0.0393,0.0393,0.0392,0.0392,0.0391,0.0538,0.0576,0.0635,0.0709,0.0777,0.0865,0.0929,0.1011,0.1111,0.1207,0.1213,0.1263,0.1104,0.085,0.0693,0.0453,0.0419,0.0373,0.0326,0.0307,0.0282,0.0384,0.0408,0.0407,0.0407,0.0406,0.0406,0,0.0578,0.0622,0.0689,0.0778,0.0852,0.0883,0.1003,0.1075,0.1204,0.1308,0.1377,0.137,0.1182,0.0944,0.0629,0.045,0.0374,0.0343,0.0329,0.031,0.0403,0.0401,0.0444,0.0444,0.0444,0.0444,0.0444,0.0444,0.0601,0.0669,0.0702,0.0825,0.0886,0.0993,0.1064,0.118,0.1284,0.1424,0.1488,0.1515,0.1378,0.0847,0.0512,0.0417,0.0298,0.0268,0.0189,0.026,0.0259,0.0259,0.0248,0.0258,0.0258,0.0149,0.0148,0.0147]}],[{"header":{"parameterUnit":"m.s-1","parameterCategory":2,"la1":30.2991,"la2":30.254,"lo1":-89.0895,"lo2":-89.0444,"dy":0.0017,"dx":0.0017,"nx":28,"ny":28,"refTime":"2024-04-30T09:00:00:Z","depth":"2","parameterNumber":2,"parameterNumberName":"U-component_of_CURRENTS"},"data":[0,0,0,0,0,0,0,0,0,0,0,0,0,0,0,0,0,0,0,0,0,0,0,0,0,0,0,0,0,0,0,0,0,0,0,0,0,0,0,0,0,0,0,0,0,0,0,0,0,0,0,0,0,0,0,0,0,0,0.1937,0.1937,0,0.1945,0.1945,0.1945,0.1975,0.1975,0.1976,0.1977,0.2019,0.2019,0.202,0,0,0,0,0,0,0,0,0,0,0,0,0,0.1938,0.1938,0.1937,0.1937,0.1937,0.1945,0.1945,0.1945,0.1974,0.1975,0.1976,0.1977,0.2019,0.2019,0.202,0,0,0,0,0,0,0,0,0,0,0,0,0,0.1941,0.1938,0.1937,0.1953,0.1955,0.1945,0.1945,0.1945,0.1974,0.1975,0.1976,0.1977,0.2018,0.2019,0.202,0.2002,0,0,0.2022,0.2022,0,0,0,0,0,0,0,0,0.194,0.1941,0.1951,0.1952,0.1954,0.196,0.1961,0.1966,0.1974,0.1966,0.1977,0.1978,0.2002,0.2004,0.2002,0.2004,0.2006,0.2022,0.2022,0.2023,0.2023,0,0,0,0,0,0,0,0.194,0.194,0.194,0.1951,0.1952,0.1957,0.1959,0.1962,0.1978,0.1967,0.1969,0.1971,0.2003,0.2001,0.2003,0.2007,0.2022,0.2022,0.2023,0.2023,0.2097,0.2098,0,0,0,0,0,0,0.1939,0.194,0.1939,0.194,0.195,0.1956,0.1958,0.1957,0.1978,0.1982,0.197,0.1972,0.1999,0.2002,0.2005,0.2055,0.2023,0.2023,0.2024,0.2095,0.2097,0.2099,0,0,0,0,0,0,0.1939,0.1939,0.1939,0.1941,0.1941,0.1955,0.1953,0.1956,0.1962,0.1979,0.1984,0.1974,0.2,0.2004,0.2044,0.2054,0.2023,0.2024,0.2093,0.2096,0.2098,0.2111,0,0,0,0,0,0,0.1939,0.1939,0.1939,0.194,0.1941,0.1952,0.1953,0.1956,0.1961,0.1964,0.1984,0.1989,0.2001,0.2043,0.2045,0.2055,0.2025,0.2091,0.2094,0.2097,0.2108,0.2113,0.2117,0,0,0,0,0,0.1939,0.1941,0.1939,0.1939,0.1941,0.1952,0.1954,0.1966,0.196,0.1973,0.1999,0.1989,0.2062,0.2045,0.2046,0.2057,0.209,0.2093,0.2097,0.2106,0.2112,0.2117,0,0,0,0,0,0,0.1944,0.1944,0.1942,0.1944,0.1954,0.1958,0.1967,0.1964,0.1989,0.1997,0.2006,0.2013,0.2051,0.2057,0.2037,0.2091,0.2074,0.2078,0.2081,0.2087,0.2091,0.2088,0.2025,0,0,0,0,0,0.1942,0.1944,0.1947,0.195,0.1955,0.1956,0.196,0.197,0.1988,0.1999,0.2013,0.2037,0.2063,0.2078,0.2101,0.2124,0.2127,0.2135,0.2139,0.2143,0.2144,0.218,0.2187,0.211,0.211,0.211,0,0,0.1943,0.1944,0.1944,0.1951,0.1957,0.1967,0.1963,0.1977,0.1991,0.1999,0.203,0.205,0.2074,0.2112,0.2128,0.2119,0.2164,0.2147,0.215,0.2149,0.2184,0.2191,0.2198,0.2112,0.2112,0.2112,0,0,0.1948,0.1949,0.1952,0.1962,0.1975,0.198,0.1984,0.1996,0.2012,0.2039,0.2056,0.209,0.2115,0.2145,0.2158,0.2199,0.2186,0.2203,0.2221,0.2256,0.2262,0.2267,0.2264,0.227,0.2206,0.2206,0.2206,0,0.1951,0.1953,0.1958,0.1967,0.1977,0.1985,0.1997,0.2011,0.2038,0.2056,0.2058,0.2114,0.2131,0.2178,0.22,0.2206,0.2214,0.2193,0.226,0.2265,0.2271,0.2267,0.2272,0.2207,0.2207,0.2207,0.2207,0,0.1956,0.1963,0.197,0.1982,0.1996,0.2011,0.2031,0.2055,0.2065,0.2077,0.2126,0.2158,0.2195,0.2203,0.2212,0.2262,0.225,0.2258,0.2239,0.2279,0.2272,0.2278,0.2209,0.2208,0.2208,0.2208,0,0,0.1947,0.1969,0.1971,0.1978,0.2007,0.2015,0.2053,0.2084,0.2105,0.2135,0.2168,0.2213,0.2228,0.2247,0.2266,0.2292,0.2329,0.2292,0.2293,0.2277,0.2383,0.2308,0.2306,0.2351,0.2353,0.2354,0.2356,0,0.1951,0.1966,0.1981,0.2,0.2009,0.204,0.2069,0.2102,0.2133,0.2171,0.2207,0.2243,0.2246,0.227,0.2301,0.2327,0.2347,0.2326,0.2358,0.2358,0.2277,0.2312,0.2116,0.2097,0.2361,0.2362,0.2363,0,0.1947,0.1959,0.1977,0.2006,0.2013,0.2031,0.2082,0.2113,0.2173,0.2199,0.2249,0.2274,0.2327,0.2322,0.238,0.2368,0.238,0.2387,0.2388,0.2317,0.2294,0.2106,0.2097,0.2372,0.2371,0.237,0.237,0,0.1925,0.1953,0.1965,0.1975,0.2012,0.2036,0.2065,0.2122,0.2155,0.2226,0.2256,0.2314,0.2354,0.2385,0.2412,0.2403,0.246,0.245,0.2387,0.238,0.2219,0.2196,0.249,0.249,0.249,0.249,0.249,0,0.1915,0.1923,0.1955,0.196,0.1983,0.202,0.2059,0.2103,0.2169,0.2204,0.2272,0.2308,0.2377,0.2417,0.2427,0.2421,0.2478,0.2389,0.2384,0.2216,0.2194,0.2441,0.2436,0.249,0.249,0.249,0.249,0,0.1886,0.1906,0.192,0.1958,0.1971,0.1991,0.205,0.2076,0.2149,0.2204,0.223,0.2319,0.2363,0.241,0.2459,0.2433,0.2437,0.2423,0.2204,0.2172,0.2321,0.2317,0.2334,0.2331,0.2329,0.2328,0.2326,0,0.1872,0.1875,0.1909,0.1916,0.1934,0.1968,0.1989,0.2061,0.209,0.2195,0.2213,0.2291,0.2315,0.2355,0.2329,0.2318,0.2399,0.2127,0.2074,0.2316,0.231,0.2308,0.2306,0.1857,0.1852,0.1848,0.1845,0,0.1846,0.186,0.187,0.1882,0.1898,0.1917,0.1955,0.1975,0.2057,0.2093,0.2143,0.2173,0.2214,0.211,0.211,0.2081,0.2109,0.2039,0.2366,0.1931,0.1869,0.1862,0.1875,0.1807,0.1811,0.1813,0.1815,0.1817,0.1825,0.1823,0.1832,0.1833,0.1849,0.1851,0.1836,0.1872,0.1893,0.1916,0.2009,0.1976,0.1983,0.1869,0.1802,0.1747,0.1897,0.1799,0.1811,0.1829,0.1777,0.1715,0.1613,0.1615,0.1617,0.1619,0.1621,0,0.178,0.1776,0.1779,0.1763,0.1739,0.1779,0.1788,0.1748,0.1717,0.1761,0.1768,0.1611,0.1521,0.1535,0.1381,0.1364,0.1353,0.1309,0.1274,0.1312,0.1347,0.127,0.0971,0.0969,0.0968,0.0966,0,0,0.1756,0.1727,0.1715,0.1646,0.1637,0.1578,0.1562,0.152,0.1516,0.1455,0.1406,0.149,0.1506,0.1236,0.1183,0.105,0.1183,0.1008,0.153,0.1531,0.1563,0.1629,0.1555,0,0,0,0,0]},{"header":{"parameterUnit":"m.s-1","parameterCategory":2,"la1":30.2991,"la2":30.254,"lo1":-89.0895,"lo2":-89.0444,"dy":0.0017,"dx":0.0017,"nx":28,"ny":28,"refTime":"2024-04-30T09:00:00:Z","depth":"2","parameterNumber":3,"parameterNumberName":"V-component_of_CURRENTS"},"data":[0,0,0,0,0,0,0,0,0,0,0,0,0,0,0,0,0,0,0,0,0,0,0,0,0,0,0,0,0,0,0,0,0,0,0,0,0,0,0,0,0,0,0,0,0,0,0,0,0,0,0,0,0,0,0,0,0,0,0.0207,0.0207,0,0.0181,0.0181,0.0181,0.0145,0.0144,0.0144,0.0143,0.0125,0.0125,0.0125,0,0,0,0,0,0,0,0,0,0,0,0,0,0.0203,0.0204,0.0207,0.0207,0.0207,0.0181,0.0181,0.0181,0.0145,0.0144,0.0144,0.0143,0.0125,0.0125,0.0125,0,0,0,0,0,0,0,0,0,0,0,0,0,0.0193,0.0204,0.0207,0.0186,0.0184,0.0181,0.0181,0.018,0.0145,0.0144,0.0143,0.0143,0.0125,0.0125,0.0125,0.0141,0,0,0.0125,0.0125,0,0,0,0,0,0,0,0,0.0194,0.0193,0.019,0.0188,0.0185,0.0166,0.0173,0.0168,0.0145,0.0159,0.0143,0.0142,0.014,0.0139,0.0135,0.014,0.0139,0.0125,0.0125,0.0125,0.0125,0,0,0,0,0,0,0,0.0195,0.0194,0.0196,0.0189,0.0187,0.0171,0.0169,0.0171,0.0154,0.0158,0.0155,0.0154,0.0139,0.0135,0.0134,0.0139,0.0125,0.0125,0.0125,0.0125,0.0143,0.0144,0,0,0,0,0,0,0.0202,0.0195,0.0197,0.0195,0.0189,0.0172,0.0169,0.0173,0.0154,0.015,0.0155,0.0152,0.0135,0.0134,0.0133,0.015,0.0125,0.0125,0.0125,0.0143,0.0144,0.0144,0,0,0,0,0,0,0.0202,0.0202,0.0198,0.0195,0.0193,0.0173,0.0177,0.0172,0.0169,0.0152,0.0148,0.0156,0.0135,0.0133,0.0131,0.0149,0.0125,0.0125,0.0142,0.0143,0.0144,0.0184,0,0,0,0,0,0,0.0202,0.0203,0.0208,0.0196,0.0194,0.0199,0.0177,0.0173,0.017,0.0167,0.0152,0.0149,0.0134,0.0131,0.0131,0.0148,0.0125,0.0142,0.0143,0.0144,0.0182,0.0186,0.0189,0,0,0,0,0,0.0202,0.0211,0.0208,0.0208,0.0201,0.02,0.0198,0.0179,0.0171,0.0173,0.0157,0.0149,0.0137,0.0131,0.0131,0.0149,0.0141,0.0142,0.0144,0.018,0.0185,0.0189,0,0,0,0,0,0,0.0208,0.0208,0.0204,0.0212,0.0209,0.0194,0.0195,0.0187,0.0177,0.0173,0.0155,0.0151,0.0156,0.0147,0.0142,0.0156,0.0139,0.014,0.0167,0.0171,0.0175,0.0188,0.0125,0,0,0,0,0,0.0215,0.0224,0.0218,0.0225,0.0226,0.0214,0.0211,0.0202,0.0192,0.0186,0.0176,0.0166,0.0162,0.0161,0.0155,0.0166,0.0154,0.0177,0.0181,0.0184,0.0194,0.0185,0.0188,0.0148,0.0148,0.0148,0,0,0.0218,0.0221,0.0225,0.0228,0.0224,0.0233,0.021,0.0212,0.022,0.0188,0.0195,0.018,0.0167,0.0173,0.0176,0.0167,0.0188,0.0186,0.0188,0.0197,0.0186,0.019,0.0194,0.0148,0.0148,0.0148,0,0,0.0234,0.0235,0.0249,0.0252,0.0252,0.0248,0.0253,0.0245,0.024,0.0246,0.0224,0.0217,0.0215,0.0206,0.0202,0.0225,0.0208,0.0225,0.0257,0.0247,0.025,0.0253,0.0239,0.024,0.0228,0.0228,0.0228,0,0.0238,0.0258,0.0252,0.0267,0.0275,0.026,0.0278,0.0275,0.0267,0.0272,0.0254,0.0247,0.0233,0.0242,0.0244,0.0236,0.0223,0.0241,0.0252,0.0255,0.0257,0.0241,0.0242,0.023,0.023,0.0229,0.0229,0,0.0267,0.0283,0.0292,0.0311,0.0317,0.0331,0.0329,0.0335,0.033,0.0326,0.0332,0.0304,0.0299,0.0294,0.0276,0.0289,0.0272,0.0257,0.0242,0.0263,0.0245,0.0246,0.0233,0.0232,0.0231,0.0231,0,0,0.028,0.0307,0.0312,0.0333,0.0344,0.0356,0.0374,0.039,0.041,0.0392,0.0411,0.0393,0.0372,0.0366,0.034,0.0331,0.0329,0.0304,0.0302,0.0291,0.0304,0.0296,0.0294,0.0314,0.0314,0.0314,0.0284,0,0.0306,0.0348,0.0354,0.0396,0.0419,0.0419,0.0442,0.0453,0.0453,0.0466,0.0439,0.0441,0.0402,0.0395,0.0381,0.0345,0.0332,0.0338,0.0283,0.0282,0.0274,0.0296,0.0311,0.0285,0.0284,0.0284,0.0284,0,0.0338,0.0364,0.041,0.0451,0.0462,0.0483,0.0522,0.054,0.055,0.0549,0.0539,0.0511,0.0494,0.0453,0.0405,0.041,0.0363,0.033,0.0328,0.0309,0.0275,0.0264,0.0285,0.0284,0.0284,0.0284,0.0284,0,0.0363,0.0407,0.0448,0.0462,0.0502,0.0525,0.0546,0.0567,0.0595,0.0597,0.0612,0.0576,0.0564,0.0505,0.0428,0.0417,0.0373,0.0346,0.0294,0.0292,0.029,0.0288,0.0313,0.0314,0.0314,0.0314,0.0314,0,0.0397,0.0431,0.0465,0.0489,0.0547,0.0558,0.0616,0.063,0.0657,0.0702,0.0654,0.0671,0.0577,0.0534,0.0455,0.0381,0.039,0.0309,0.029,0.0304,0.0303,0.029,0.0287,0.0313,0.0313,0.0313,0.0313,0,0.0424,0.0443,0.0495,0.0542,0.0562,0.0603,0.0665,0.0706,0.0722,0.0775,0.0776,0.0747,0.0695,0.0596,0.0503,0.0424,0.0345,0.0312,0.0333,0.0316,0.0262,0.0262,0.0256,0.0256,0.0255,0.0255,0.0255,0,0.0442,0.0471,0.0535,0.0569,0.0593,0.0654,0.07,0.0737,0.0784,0.0828,0.0859,0.0819,0.0807,0.0664,0.0524,0.0389,0.0356,0.0298,0.028,0.0278,0.0259,0.026,0.026,0.0287,0.0287,0.0287,0.0287,0,0.0477,0.0498,0.0541,0.0611,0.0665,0.0734,0.08,0.0847,0.0899,0.0943,0.0987,0.0978,0.0854,0.0726,0.0535,0.0437,0.032,0.0294,0.0294,0.0301,0.0305,0.0287,0.0287,0.0287,0.0287,0.0287,0.0287,0.0287,0.0503,0.0538,0.0591,0.0659,0.0723,0.0804,0.0862,0.0932,0.1014,0.1076,0.1074,0.1061,0.0917,0.0681,0.0514,0.0329,0.0345,0.0264,0.0264,0.0265,0.0276,0.0279,0.0259,0.0258,0.0258,0.0258,0.0258,0,0.0534,0.0573,0.0634,0.0714,0.0781,0.0814,0.0923,0.0979,0.1074,0.1125,0.1157,0.1011,0.0876,0.0696,0.0442,0.0292,0.0271,0.022,0.0234,0.0236,0.0237,0.0246,0.0221,0.022,0.0219,0.0219,0,0,0.055,0.0607,0.0637,0.0745,0.0801,0.0897,0.096,0.1042,0.1103,0.1145,0.1135,0.1125,0.0932,0.073,0.053,0.0377,0.0332,0.0335,0.0386,0.043,0.0432,0.0288,0.0308,0,0,0,0,0]}],[{"header":{"parameterUnit":"m.s-1","parameterCategory":2,"la1":30.2991,"la2":30.254,"lo1":-89.0895,"lo2":-89.0444,"dy":0.0017,"dx":0.0017,"nx":28,"ny":28,"refTime":"2024-04-30T09:00:00:Z","depth":"4","parameterNumber":2,"parameterNumberName":"U-component_of_CURRENTS"},"data":[0,0,0,0,0,0,0,0,0,0,0,0,0,0,0,0,0,0,0,0,0,0,0,0,0,0,0,0,0,0,0,0,0,0,0,0,0,0,0,0,0,0,0,0,0,0,0,0,0,0,0,0,0,0,0,0,0,0,0.128,0.128,0,0.1262,0.1262,0.1261,0.127,0.127,0.1271,0.1272,0.1267,0.1266,0.1266,0,0,0,0,0,0,0,0,0,0,0,0,0,0.1273,0.1273,0.128,0.128,0.128,0.1262,0.1262,0.1261,0.127,0.127,0.1271,0.1272,0.1267,0.1267,0.1266,0,0,0,0,0,0,0,0,0,0,0,0,0,0.1264,0.1273,0.128,0.1284,0.1285,0.1262,0.1262,0.1261,0.1269,0.127,0.1272,0.1273,0.1268,0.1267,0.1265,0.1236,0,0,0.1262,0.1261,0,0,0,0,0,0,0,0,0.1265,0.1264,0.1284,0.1284,0.1285,0.1272,0.1258,0.1254,0.1269,0.1272,0.1272,0.1273,0.1271,0.127,0.1259,0.1235,0.1235,0.1262,0.1261,0.126,0.126,0,0,0,0,0,0,0,0.1266,0.1265,0.127,0.1284,0.1284,0.1271,0.1271,0.1256,0.1263,0.1272,0.1273,0.1276,0.1271,0.126,0.1259,0.1235,0.1262,0.1261,0.126,0.1259,0.1303,0.1305,0,0,0,0,0,0,0.1275,0.1266,0.127,0.1269,0.1281,0.1271,0.1271,0.1272,0.1263,0.1264,0.1275,0.1276,0.1262,0.1261,0.1259,0.1299,0.126,0.1259,0.1258,0.1301,0.1303,0.1305,0,0,0,0,0,0,0.1275,0.1276,0.1271,0.127,0.1269,0.127,0.1272,0.1271,0.1283,0.1266,0.1266,0.1289,0.1263,0.1261,0.1278,0.1296,0.1259,0.1258,0.1299,0.1302,0.1304,0.133,0,0,0,0,0,0,0.1275,0.1276,0.129,0.127,0.1269,0.1268,0.1271,0.127,0.1283,0.1285,0.1278,0.1277,0.1264,0.128,0.1277,0.1294,0.1257,0.1296,0.13,0.1304,0.1327,0.1333,0.1339,0,0,0,0,0,0.1275,0.1283,0.129,0.1291,0.1285,0.1269,0.1266,0.1269,0.1283,0.1284,0.1296,0.1279,0.1301,0.128,0.1276,0.1293,0.1295,0.1299,0.1303,0.1324,0.1332,0.1339,0,0,0,0,0,0,0.1285,0.1285,0.1292,0.1301,0.1293,0.1272,0.1282,0.128,0.1288,0.1307,0.129,0.129,0.1314,0.1306,0.1284,0.1322,0.13,0.1303,0.1317,0.1325,0.1331,0.1343,0.1256,0,0,0,0,0,0.1295,0.1306,0.1296,0.1306,0.1308,0.13,0.13,0.1302,0.1302,0.1307,0.1304,0.1315,0.1322,0.1328,0.1329,0.1339,0.1345,0.1356,0.1362,0.1367,0.1378,0.1399,0.1407,0.1319,0.1319,0.1319,0,0,0.1303,0.1306,0.1313,0.131,0.1311,0.1309,0.1303,0.1313,0.1317,0.1305,0.1325,0.1332,0.1332,0.135,0.1361,0.1348,0.1399,0.1372,0.1376,0.1385,0.1404,0.1412,0.142,0.1322,0.1322,0.1321,0,0,0.1313,0.1329,0.1338,0.1336,0.1344,0.1336,0.1344,0.1338,0.1348,0.1362,0.1365,0.1391,0.139,0.1397,0.1399,0.1443,0.143,0.1448,0.1483,0.1502,0.1509,0.1515,0.1542,0.1551,0.1451,0.1451,0.1451,0,0.1327,0.1333,0.1337,0.1342,0.1347,0.1351,0.1356,0.1358,0.136,0.1374,0.1381,0.1413,0.1414,0.1436,0.1461,0.1454,0.1467,0.1446,0.1508,0.1514,0.152,0.1546,0.1555,0.1452,0.1452,0.1452,0.1452,0,0.1329,0.1346,0.1353,0.1363,0.1366,0.1374,0.1378,0.1393,0.1413,0.1416,0.1455,0.1464,0.1486,0.1492,0.149,0.1533,0.153,0.1509,0.1482,0.153,0.1555,0.1564,0.1455,0.1454,0.1454,0.1453,0,0,0.1325,0.1351,0.1357,0.1367,0.1382,0.1379,0.1405,0.1416,0.144,0.1463,0.1492,0.1523,0.1541,0.1549,0.1551,0.1574,0.163,0.1567,0.1567,0.1582,0.1685,0.1558,0.1554,0.1614,0.1616,0.1617,0.1688,0,0.1327,0.1344,0.1356,0.1373,0.138,0.1399,0.1416,0.1437,0.1462,0.1493,0.1524,0.1556,0.1556,0.158,0.1605,0.1624,0.1653,0.1614,0.1648,0.165,0.1519,0.156,0.1622,0.1695,0.1697,0.1698,0.1699,0,0.1316,0.1332,0.1354,0.1381,0.1388,0.1404,0.1441,0.1458,0.1504,0.153,0.1574,0.1594,0.1648,0.1636,0.17,0.1676,0.1694,0.1704,0.1706,0.1583,0.1537,0.1637,0.1714,0.1713,0.1712,0.1711,0.171,0,0.1293,0.1325,0.1346,0.1355,0.1388,0.1414,0.1437,0.1479,0.1505,0.1565,0.1599,0.1647,0.1694,0.1718,0.1754,0.1735,0.1816,0.1783,0.1687,0.1679,0.1759,0.1752,0.1829,0.1829,0.1829,0.1829,0.1828,0,0.1268,0.1288,0.1346,0.1354,0.1387,0.1416,0.1458,0.1489,0.1545,0.1575,0.1627,0.1656,0.172,0.1766,0.1777,0.1761,0.1837,0.1703,0.1686,0.1771,0.1765,0.1766,0.1757,0.1831,0.1831,0.183,0.183,0,0.1229,0.1267,0.1297,0.1354,0.1377,0.1404,0.147,0.1492,0.1558,0.1603,0.1628,0.1697,0.1741,0.1788,0.184,0.1785,0.1782,0.1759,0.1871,0.1858,0.1629,0.1621,0.1647,0.1643,0.164,0.1637,0.1635,0,0.1204,0.1218,0.1296,0.1319,0.1351,0.1401,0.1428,0.1494,0.1515,0.1605,0.1615,0.1693,0.1724,0.1702,0.1754,0.176,0.1736,0.1728,0.1654,0.1628,0.161,0.1608,0.1605,0.1629,0.1629,0.1628,0.1627,0,0.1157,0.1203,0.123,0.1283,0.1323,0.1353,0.14,0.1409,0.1476,0.1556,0.1554,0.1559,0.1606,0.1622,0.1646,0.1644,0.1722,0.1693,0.1699,0.1629,0.1607,0.1591,0.1593,0.1615,0.1617,0.1618,0.1619,0,0.1132,0.1143,0.1193,0.1222,0.1273,0.1278,0.1314,0.1326,0.1355,0.1445,0.1446,0.1515,0.1593,0.1563,0.1583,0.157,0.1532,0.1469,0.1485,0.1499,0.1412,0.136,0.1285,0,0,0,0,0,0.1092,0.1092,0.1121,0.1139,0.1185,0.1213,0.1275,0.1309,0.1383,0.1342,0.1383,0.1406,0.1406,0.1446,0.14,0.152,0.1549,0.1459,0.1489,0.1551,0.1564,0.1472,0,0,0,0,0,0,0.1064,0.1093,0.1092,0.1062,0.1061,0.1093,0.1133,0.1186,0.1163,0.1246,0.1257,0.1313,0.1345,0.1417,0.1371,0.1382,0.1368,0.1505,0.1501,0.1543,0.1555,0.1566,0.1476,0,0,0,0,0]},{"header":{"parameterUnit":"m.s-1","parameterCategory":2,"la1":30.2991,"la2":30.254,"lo1":-89.0895,"lo2":-89.0444,"dy":0.0017,"dx":0.0017,"nx":28,"ny":28,"refTime":"2024-04-30T09:00:00:Z","depth":"4","parameterNumber":3,"parameterNumberName":"V-component_of_CURRENTS"},"data":[0,0,0,0,0,0,0,0,0,0,0,0,0,0,0,0,0,0,0,0,0,0,0,0,0,0,0,0,0,0,0,0,0,0,0,0,0,0,0,0,0,0,0,0,0,0,0,0,0,0,0,0,0,0,0,0,0,0,0.0212,0.0212,0,0.0221,0.0221,0.0221,0.0222,0.0222,0.0222,0.0222,0.0252,0.0253,0.0254,0,0,0,0,0,0,0,0,0,0,0,0,0,0.0192,0.0192,0.0212,0.0212,0.0212,0.0221,0.0221,0.0221,0.0222,0.0222,0.0222,0.0221,0.0252,0.0253,0.0254,0,0,0,0,0,0,0,0,0,0,0,0,0,0.0201,0.0192,0.0212,0.0213,0.0213,0.0221,0.0221,0.0222,0.0222,0.0222,0.0222,0.0221,0.0252,0.0253,0.0254,0.0268,0,0,0.0259,0.0259,0,0,0,0,0,0,0,0,0.0201,0.0202,0.0213,0.0213,0.0213,0.022,0.0225,0.0238,0.0222,0.0219,0.0222,0.0221,0.0243,0.0245,0.0248,0.0269,0.027,0.0259,0.026,0.026,0.0261,0,0,0,0,0,0,0,0.02,0.0201,0.0216,0.0213,0.0213,0.0212,0.0213,0.0228,0.0233,0.0219,0.0219,0.022,0.0244,0.0247,0.0249,0.0271,0.0259,0.026,0.0261,0.0262,0.031,0.031,0,0,0,0,0,0,0.0198,0.0201,0.0216,0.0216,0.0206,0.0213,0.0214,0.0218,0.0233,0.0234,0.022,0.022,0.0244,0.0247,0.025,0.0279,0.026,0.0262,0.0263,0.031,0.031,0.0311,0,0,0,0,0,0,0.0198,0.02,0.0215,0.0208,0.021,0.0213,0.0218,0.0219,0.0226,0.0233,0.0235,0.0227,0.0244,0.0248,0.0269,0.028,0.0262,0.0264,0.0309,0.031,0.031,0.033,0,0,0,0,0,0,0.0197,0.02,0.0205,0.0208,0.021,0.0226,0.0218,0.0219,0.0226,0.0226,0.024,0.0242,0.0244,0.0267,0.0271,0.0282,0.0265,0.0309,0.0309,0.031,0.0329,0.0332,0.0334,0,0,0,0,0,0.0197,0.0205,0.0206,0.0208,0.0217,0.0226,0.0228,0.0229,0.0227,0.0234,0.0243,0.0242,0.0275,0.0269,0.0273,0.0285,0.0308,0.0309,0.031,0.0328,0.0331,0.0334,0,0,0,0,0,0,0.0199,0.0206,0.0207,0.0217,0.0224,0.0226,0.0233,0.0234,0.0246,0.0248,0.0252,0.0256,0.0276,0.0279,0.0273,0.03,0.0289,0.0291,0.0302,0.0305,0.0307,0.0313,0.0266,0,0,0,0,0,0.0202,0.0212,0.0216,0.0226,0.0229,0.0233,0.0237,0.0239,0.0248,0.0253,0.0262,0.0272,0.0283,0.0293,0.0302,0.0323,0.0311,0.0331,0.0333,0.0335,0.0342,0.0331,0.0333,0.0314,0.0314,0.0314,0,0,0.0205,0.0211,0.0216,0.0227,0.0232,0.0246,0.0235,0.0246,0.0261,0.0256,0.0281,0.0282,0.029,0.0309,0.0319,0.0314,0.0333,0.0336,0.0338,0.0344,0.0332,0.0334,0.0336,0.0314,0.0314,0.0314,0,0,0.0218,0.0222,0.0236,0.0244,0.0254,0.0258,0.0263,0.0271,0.0278,0.03,0.0297,0.0306,0.0327,0.0332,0.0337,0.0359,0.0344,0.0361,0.0381,0.037,0.0372,0.0373,0.0351,0.0351,0.0363,0.0363,0.0363,0,0.0221,0.0241,0.0241,0.0257,0.0269,0.0266,0.0286,0.0293,0.0308,0.032,0.0312,0.0336,0.0338,0.0361,0.0365,0.0365,0.0352,0.037,0.0373,0.0374,0.0375,0.0353,0.0351,0.0364,0.0364,0.0364,0.0364,0,0.0246,0.0263,0.0272,0.0294,0.0306,0.0323,0.0331,0.0346,0.0351,0.0357,0.0378,0.0375,0.0388,0.0387,0.0384,0.0395,0.0381,0.0375,0.0365,0.0378,0.0354,0.0352,0.0366,0.0366,0.0365,0.0365,0,0,0.0253,0.0284,0.0289,0.031,0.0329,0.0345,0.0368,0.0392,0.0414,0.0416,0.0439,0.0444,0.0433,0.0438,0.0429,0.042,0.0407,0.0402,0.0401,0.038,0.0375,0.0354,0.035,0.04,0.04,0.04,0.0352,0,0.0276,0.0315,0.0325,0.0368,0.0391,0.04,0.0427,0.0446,0.0455,0.0475,0.0464,0.0479,0.0455,0.0459,0.0446,0.0422,0.0406,0.042,0.0368,0.0366,0.0345,0.0349,0.0401,0.0351,0.0351,0.035,0.035,0,0.0301,0.0326,0.0371,0.0415,0.0427,0.0451,0.0495,0.0518,0.0536,0.0542,0.0543,0.0529,0.0521,0.0494,0.0451,0.0461,0.0421,0.0394,0.0392,0.0366,0.0343,0.0338,0.0347,0.0347,0.0347,0.0348,0.0348,0,0.0316,0.0362,0.0402,0.0417,0.0461,0.0487,0.0513,0.0541,0.057,0.0582,0.0595,0.0574,0.0568,0.0519,0.0457,0.0454,0.0402,0.0389,0.033,0.0327,0.0351,0.0351,0.0355,0.0355,0.0355,0.0355,0.0355,0,0.034,0.0373,0.0414,0.0437,0.0493,0.0513,0.057,0.059,0.062,0.0655,0.0629,0.064,0.0575,0.0534,0.047,0.0394,0.0407,0.0335,0.0317,0.0359,0.036,0.0349,0.0349,0.0353,0.0353,0.0354,0.0354,0,0.0353,0.0377,0.0428,0.0481,0.0503,0.0544,0.061,0.0646,0.0668,0.0709,0.0712,0.069,0.0638,0.0563,0.0482,0.0416,0.0343,0.0311,0.0358,0.0343,0.0269,0.0271,0.0239,0.0238,0.0237,0.0237,0.0236,0,0.0363,0.0389,0.0459,0.0492,0.0519,0.0581,0.0625,0.0669,0.0705,0.0738,0.0756,0.072,0.0691,0.0558,0.0478,0.0348,0.0327,0.0276,0.0275,0.0273,0.0259,0.0262,0.0265,0.0234,0.0234,0.0234,0.0234,0,0.038,0.0406,0.0447,0.0513,0.0567,0.0631,0.0691,0.072,0.0768,0.0788,0.0782,0.0717,0.0659,0.0555,0.0455,0.0364,0.0302,0.0266,0.0267,0.0266,0.0267,0.0254,0.0258,0.0231,0.0231,0.0231,0.0232,0,0.0393,0.0422,0.0472,0.0533,0.0599,0.0658,0.0694,0.0733,0.0771,0.0799,0.0796,0.0735,0.0703,0.0564,0.0475,0.038,0.0351,0.0302,0.03,0.0303,0.0334,0.0345,0.032,0,0,0,0,0,0.0402,0.0431,0.0485,0.0549,0.0614,0.0654,0.0729,0.0758,0.0802,0.0796,0.0796,0.0738,0.0609,0.0562,0.0463,0.0454,0.0333,0.0331,0.0275,0.0213,0.0217,0.024,0,0,0,0,0,0,0.0405,0.0454,0.048,0.0553,0.0594,0.0668,0.0717,0.0747,0.0746,0.0769,0.0707,0.0687,0.0569,0.066,0.045,0.0426,0.0369,0.0281,0.0278,0.0211,0.0214,0.0217,0.0243,0,0,0,0,0]}]]